Regional Weather Roundup
Issued by NWS

Home | Current Version | Previous Version | Graphics & Text | Print | Product List | Glossary On
Versions: 1 2 3 4 5 6 7 8 9 10 11 12 13 14 15 16 17 18 19 20 21 22 23 24 25 26 27 28 29 30 31 32 33 34 35 36 37 38 39 40 41 42 43 44 45 46 47 48 49 50
000
ASUS43 KTOP 311159
RWRKS

WEATHER ROUNDUP FOR KANSAS
NATIONAL WEATHER SERVICE GOODLAND KS
600 AM CST SAT JAN 31 2015

NOTE:  "FAIR" INDICATES FEW OR NO CLOUDS BELOW 12,000 FEET WITH NO
SIGNIFICANT WEATHER AND/OR OBSTRUCTIONS TO VISIBILITY.

KSZ001>006-013>018-027>032-041>047-311300-
NORTHWEST KANSAS

CITY           SKY/WX    TMP DP  RH WIND       PRES   REMARKS
GOODLAND       CLOUDY    34  33  96 S8        29.91F FOG
6HR MIN TEMP:  34; 6HR MAX TEMP:  34;

HAYS           CLOUDY    32  25  74 SE10      30.08F WCI  24
HILL CITY      CLOUDY    33  31  92 S8        30.03F
6HR MIN TEMP:  33; 6HR MAX TEMP:  36; 6HR PCP:  0.05;

RUSSELL        LGT SNOW  33  32  96 SE9       30.09F FOG
6HR MIN TEMP:  32; 6HR MAX TEMP:  35; 6HR PCP:  0.13;

$$

KSZ061>065-074>080-084>089-311300-
SOUTHWEST KANSAS

CITY           SKY/WX    TMP DP  RH WIND       PRES   REMARKS
DODGE CITY     LGT RAIN  34  31  88 S20       30.05F WCI  23
6HR MIN TEMP:  33; 6HR MAX TEMP:  34; 6HR PCP:  0.04;

ELKHART          N/A     34  26  72 S13         N/A  WCI  25
GARDEN CITY    CLOUDY    33  32  96 S18       29.99F WCI  22
6HR MIN TEMP:  32; 6HR MAX TEMP:  33; 6HR PCP:  0.02;

LIBERAL        CLOUDY    36  30  80 S14       30.05F WCI  27
$$

KSZ066>073-081>083-090>101-311300-
SOUTHEAST KANSAS

CITY           SKY/WX    TMP DP  RH WIND       PRES   REMARKS
CHANUTE        CLOUDY    39  37  92 SE3       30.22F
6HR MIN TEMP:  36; 6HR MAX TEMP:  43; 6HR PCP:  0.05;

COFFEYVILLE    CLOUDY    40  31  70 S5        30.23F
6HR MIN TEMP:  37; 6HR MAX TEMP:  41; 6HR PCP: TRACE;

HUTCHINSON     CLOUDY    37  28  70 SE8       30.15F
6HR MIN TEMP:  37; 6HR MAX TEMP:  38;

MEDICINE LODGE   N/A     34  32  92 S5        30.15F
NEWTON         CLOUDY    36  25  64 SE7       30.17F
PARSONS        CLOUDY    42  30  62 SE3       30.22F
6HR MIN TEMP:  37; 6HR MAX TEMP:  42; 6HR PCP: TRACE;

WICHITA INTL   CLOUDY    39  25  57 SE6       30.16F
6HR MIN TEMP:  38; 6HR MAX TEMP:  40;

WICHITA JABRA  CLOUDY    38  25  59 SE6       30.16F
6HR MIN TEMP:  37; 6HR MAX TEMP:  38; 6HR PCP: TRACE;

WINFIELD       CLOUDY    40  24  53 SE7       30.19F
6HR MIN TEMP:  39; 6HR MAX TEMP:  42;

$$

KSZ007>012-019>026-033>040-048>060-102>105-311300-
NORTHEAST KANSAS

CITY           SKY/WX    TMP DP  RH WIND       PRES   REMARKS
CONCORDIA      LGT SNOW  33  33 100 S6        30.15F FOG
6HR MIN TEMP:  32; 6HR MAX TEMP:  34; 6HR PCP:  0.21;

EMPORIA        LGT RAIN  36  35  96 SE6       30.18F
6HR MIN TEMP:  35; 6HR MAX TEMP:  37; 6HR PCP:  0.12;

LAWRENCE       LGT RAIN  34  32  92 E3        30.26S FOG
6HR MIN TEMP:  33; 6HR MAX TEMP:  34; 6HR PCP:  0.04;

MANHATTAN      CLOUDY    37  36  96 E7        30.18F
6HR MIN TEMP:  35; 6HR MAX TEMP:  37; 6HR PCP:  0.20;

OLATHE IND     MIX PCPN  34  30  85 SE5       30.26S
6HR MIN TEMP:  34; 6HR MAX TEMP:  36; 6HR PCP:  0.02;

OLATHE EXE     LGT RAIN  34  31  88 SE3       30.24F
6HR MIN TEMP:  34; 6HR MAX TEMP:  36; 6HR PCP:  0.01;

SALINA         CLOUDY    37  33  85 SE6       30.17F
6HR MIN TEMP:  36; 6HR MAX TEMP:  37; 6HR PCP:  0.09;

TOPEKA BILLARD LGT RAIN  35  34  96 E3        30.25F FOG
6HR MIN TEMP:  35; 6HR MAX TEMP:  38; 6HR PCP:  0.14;

TOPEKA FORBES  LGT RAIN  36  34  92 CALM      30.23F FOG
6HR MIN TEMP:  36; 6HR MAX TEMP:  38; 6HR PCP:  0.16;

$$



USA.gov is the U.S. government's official web portal to all federal, state and local government web resources and services.